Location: *
(46.1006°N, 1.8394°E)
Time: 17:35:40
(UTC+00:00)

ASTEX 1 - Pass Details

Date: 20 September 2019
Orbit: 719 x 744 km, 92.7° (Epoch: 14 October)

Event Time Altitude Azimuth Distance (km) Brightness Sun altitude
Rises 19:03:05 0° 8° (N) 3,143 6.8 -12.5°
Reaches altitude 10° 19:05:25 10° 11° (N) 2,217 5.9 -12.9°
Maximum altitude 19:10:17 66° 94° (E) 790 3.3 -13.7°
Drops below altitude 10° 19:15:07 10° 176° (S) 2,202 5.7 -14.5°
Sets 19:17:24 0° 180° (S) 3,120 6.5 -14.9°
